Regional Weather Roundup
Issued by NWS

Home | Current Version | Previous Version | Text Only | Print | Product List | Glossary Off
Versions: 1 2 3 4 5 6 7 8 9 10 11 12 13 14 15 16 17 18 19 20 21 22 23 24 25 26 27 28 29 30 31 32 33 34 35 36 37 38 39 40 41 42 43 44 45 46 47 48 49 50

104
ASUS43 KLOT 261408
RWRIL

ILLINOIS REGIONAL WEATHER ROUNDUP
NATIONAL WEATHER SERVICE CHICAGO/ROMEOVILLE IL
900 AM CDT MON JUN 26 2017

NOTE: "FAIR" INDICATES FEW OR NO CLOUDS BELOW 12,000 FEET WITH NO
SIGNIFICANT WEATHER AND/OR OBSTRUCTIONS TO VISIBILITY.

* THESE STATIONS ARE NOT UNDER NWS QUALITY CONTROL. THEY ALSO MAY NOT
  REPORT WEATHER SUCH AS PRECIPITATION OR FOG.

ILZ001-002-007-009-015-016-024-261500-
NORTHWEST ILLINOIS

CITY           SKY/WX    TMP DP  RH WIND       PRES   REMARKS
MOLINE         CLOUDY    62  50  64 W13G20    30.18S
STERLING*      MOSUNNY   63  50  62 NW13      30.16S
SAVANNA*       MOSUNNY   60  49  65 W7        30.16S
$$

ILZ003-004-008-010-011-017-018-261500-
NORTH CENTRAL ILLINOIS

CITY           SKY/WX    TMP DP  RH WIND       PRES   REMARKS
ROCKFORD       PTSUNNY   64  48  56 NW8       30.13F
FREEPORT*      MOSUNNY   61  47  60 W12       30.15S
ROCHELLE*      PTSUNNY   61  48  62 W13       30.14S
DE KALB*       PTSUNNY   62  48  60 W10       30.14S
PERU*          PTSUNNY   62  47  58 W15       30.17R
$$

ILZ005-006-012>014-019>023-261500-
NORTHEAST ILLINOIS

CITY           SKY/WX    TMP DP  RH WIND       PRES   REMARKS
CHICAGO-OHARE  PTSUNNY   65  48  54 W9        30.10F
CHICAGO-MIDWAY MOSUNNY   67  48  50 W8        30.11S
AURORA         PTSUNNY   65  48  54 W12       30.13F
LANSING*       SUNNY     64  49  59 W8        30.12F
JOLIET*        SUNNY     67  49  52 W6        30.13F
WAUKEGAN       MOSUNNY   63  49  60 NW7       30.09F
DUPAGE AIRPORT SUNNY     63  50  62 W8        30.11F
WHEELING       PTSUNNY   63  51  65 W7        30.12S
MORRIS*        MOSUNNY   65  47  51 W12G17    30.13S
ROMEOVILLE*    MOSUNNY   64  47  52 W8        30.12F
NORTHERLY ISL    N/A     65  45  48 SW3         N/A
$$

LMZ740>746-261500-
SOUTHERN LAKE MICHIGAN

STATION/POSITION SKY/WX   TEMP    WIND        PRES    VSBY  WAVE
                          AIR SEA DIR/SP/G                  HT/PER
                          (F)     (DEG/KT/KT) (MB)    (MI)  (FT/S)
SOUTHERN BUOY              59 61  310/ 16/ 19 1018.6          3/ 4
WILMETTE HARBOR            62 63  280/ 10/ 12   N/A           1/ 2
HARRISON CRIB              64     270/  9/  9   N/A
BURNHAM HARBOR             66                   N/A
CALUMET HARBOR             65     250/  4/  9 1019.0F
BURNS HARBOR               62     260/  8/ 10 1020.0F
MICHIGAN CITY              60     250/ 11/ 12   N/A
MICHIGAN CITY 6N           62 66  260/ 10/ 12   N/A           3/ 4
ST. JOSEPH                 63 69  290/ 10/ 16 1019.2          3/ 4
$$

ILZ025>027-034>036-040-047-049-050-058-095>099-261500-
WEST-CENTRAL ILLINOIS

CITY           SKY/WX    TMP DP  RH WIND       PRES   REMARKS
QUINCY         SUNNY     66  51  58 NW3       30.22R
GALESBURG*     CLOUDY    60  51  72 W9        30.22S
MACOMB*        RAIN      56  51  84 NW12      30.26R
JACKSONVILLE*  SUNNY     66  50  56 W5        30.22R
PITTSFIELD*    SUNNY     67  53  61 W5        30.23S
$$

ILZ028>032-037-038-041>044-048-051>054-059>061-261500-
CENTRAL ILLINOIS

CITY           SKY/WX    TMP DP  RH WIND       PRES   REMARKS
PONTIAC        MOSUNNY   66  49  54 W10       30.17R
BLOOMINGTON    SUNNY     66  48  52 W12       30.19R
DECATUR        SUNNY     65  50  58 W6        30.20R
PEORIA         CLOUDY    63  49  60 W8        30.20R
LACON*         PTSUNNY   63  49  59 W6        30.18R
LINCOLN*       SUNNY     67  51  56 W5        30.19S
SPRINGFIELD    SUNNY     68  52  56 W7        30.20S
TAYLORVILLE    SUNNY     67  51  56 W7        30.21R
$$

ILZ033-039-045-046-055>057-062-063-261500-
EAST-CENTRAL ILLINOIS

CITY           SKY/WX    TMP DP  RH WIND       PRES   REMARKS
CHAMPAIGN      SUNNY     66  50  56 W5        30.18S
RANTOUL*       SUNNY     69  51  51 W12       30.17R
MATTOON        SUNNY     68  52  56 W6        30.18F
PARIS*         SUNNY     65  55  70 W6        30.19S
$$

ILZ079-100>102-261500-
SOUTHWEST ILLINOIS

CITY           SKY/WX    TMP DP  RH WIND       PRES   REMARKS
ALTON          SUNNY     68  54  60 W12       30.22S
CAHOKIA*       SUNNY     71  50  47 SW6       30.22S
SPARTA*        MOSUNNY   71  47  43 CALM      30.24S
$$

ILZ064>066-069>071-074>076-080>082-084>086-088>090-092>094-261500-
SOUTH-CENTRAL ILLINOIS

CITY           SKY/WX    TMP DP  RH WIND       PRES   REMARKS
CARBONDALE     CLOUDY    71  53  52 NW5       30.23S
CAIRO*         CLOUDY    70  55  59 CALM      30.24R
EFFINGHAM*     SUNNY     69  51  53 W8        30.22S
MARION         MOSUNNY   72  52  49 NW6       30.24R
MT. VERNON     SUNNY     70  54  56 SW7       30.23R
CENTRALIA*     SUNNY     71  53  54 W5        30.22S
SALEM*         SUNNY     71  50  46 W6        30.21S
METROPOLIS*    PTSUNNY   71  53  52 CALM      30.24S
$$

ILZ067-068-072-073-078-083-087-091-261500-
SOUTHEAST ILLINOIS

CITY           SKY/WX    TMP DP  RH WIND       PRES   REMARKS
LAWRENCEVILLE  SUNNY     68  54  60 W7        30.21R
FLORA*         SUNNY     71  50  47 NW7       30.22R
FAIRFIELD*     SUNNY     69  51  54 CALM      30.21S
HARRISBURG*    SUNNY     71  53  51 W6        30.23S
ROBINSON*      SUNNY     67  52  59 SW8       30.20F
CARMI*         SUNNY     69  53  57 W6        30.22S
$$

ABBREVIATIONS USED IN REMARKS
   TC - TEMPERATURE IN CELSIUS
  WCI - WIND CHILL INDEX
   HX - HEAT INDEX
  VSB - VISIBILITY
$$





USA.gov is the U.S. government's official web portal to all federal, state and local government web resources and services.